Voltar ao catálogo

STARLINK-6140

AtivoComunicaçõesVLEO
NORAD 57111·PAYLOAD·🇺🇸 United States

Lançado Jun 23, 2023 de Cape Canaveral Space Force Station

Loading…

Próximas Passagens (próximas 24 horas)

TLE

AtualizadoSource: CelesTrak SupGP

Época: Sep 15, 2026, 03:07 UTC

1 57111C 23090L   26258.13034722  .00002971  00000+0  10759-3 0  2585
2 57111  42.9993 291.5768 0001413 260.1071 195.0261 15.27577941    10

Acompanhe STARLINK-6140 em tempo real com AllMySat

Download on the App Store